Regional Weather Roundup
Issued by NWS Charleston, SC

Current Version | Previous Version | Text Only | Print | Product List | Glossary Off
Versions: 1 2 3 4 5 6 7 8 9 10 11 12 13 14 15 16 17 18 19 20 21 22 23 24 25 26 27 28 29 30 31 32 33 34 35 36 37 38 39 40 41 42 43 44 45 46 47 48 49 50
000 ASUS42 KCHS 041212 RWRCHS REGIONAL WEATHER ROUNDUP NATIONAL WEATHER SERVICE CHARLESTON SC 800 AM EDT FRI SEP 04 2015 NOTE: "FAIR" INDICATES FEW OR NO CLOUDS BELOW 12,000 FEET WITH NO SIGNIFICANT WEATHER AND/OR OBSTRUCTIONS TO VISIBILITY. NOT ALL STATIONS ARE QUALITY CONTROLLED BY THE NATIONAL WEATHER SERVICE. USE DATA WITH CAUTION...ESPECIALLY DEWPOINT OBSERVATIONS. SCZ027-030-031-034>040-042>050-041300- ...SOUTHEAST SOUTH CAROLINA... CITY SKY/WX TMP DP RH WIND PRES REMARKS N CHARLESTON MOSUNNY 78 75 90 N5 29.94R 6HR MIN TEMP: 75; 6HR MAX TEMP: 78; WATERFRONT PRK N/A 79 76 91 VRB3 29.91R MOUNT PLEASANT FAIR 77 75 94 CALM 29.94R JOHNS ISLAND FAIR 79 77 94 CALM 29.94S PINOPOLIS N/A 81 75 83 W5 29.88R MONCKS CORNER FAIR 75 73 94 CALM 29.95R SUMMERVILLE FAIR 73 73 100 CALM 29.96R BEAUFORT MCAS SUNNY 78 76 93 CALM 29.95R 6HR MIN TEMP: 76; 6HR MAX TEMP: 80; BEAUFORT ARPT FAIR 77 77 100 CALM 29.95R FOG HILTON HEAD IS SUNNY 79 75 89 W6 29.96R WALTERBORO SUNNY 77 73 88 CALM 29.96R ALLENDALE FAIR 75 73 94 CALM 29.96R FOG ...SOUTHERN MIDLANDS AND PEE DEE... CITY SKY/WX TMP DP RH WIND PRES REMARKS GEORGETOWN NOT AVBL KINGSTREE NOT AVBL ORANGEBURG SUNNY 74 72 93 CALM 29.96S 6HR MIN TEMP: 71; 6HR MAX TEMP: 75; BARNWELL FAIR 73 73 100 CALM 29.97R AIKEN FAIR 72 70 94 CALM 30.01R FOG MANNING FAIR 72 72 100 CALM 29.95S COLUMBIA SUNNY 74 70 87 CALM 29.96R 6HR MIN TEMP: 73; 6HR MAX TEMP: 76; SUMTER SUNNY 76 72 87 NW3 29.94R 6HR MIN TEMP: 74; 6HR MAX TEMP: 76; FLORENCE SUNNY 75 72 90 CALM 29.95R FOG 6HR MIN TEMP: 72; 6HR MAX TEMP: 75; MYRTLE BEACH NOT AVBL N MYRTLE BEACH SUNNY 75 73 93 NW3 29.95R 6HR MIN TEMP: 71; 6HR MAX TEMP: 75; $$ GAZ063-065-086>088-099>101-113>116-118-119-134>141-150-041300- ...SOUTHEAST GEORGIA... CITY SKY/WX TMP DP RH WIND PRES REMARKS SAVANNAH ARPT FAIR 78 75 90 W7 29.96R 6HR MIN TEMP: 76; 6HR MAX TEMP: 79; HUNTER AAF SUNNY 77 77 100 NW3 29.94R 6HR MIN TEMP: 75; 6HR MAX TEMP: 79; FORT STEWART MOSUNNY 76 74 94 CALM 29.95R 6HR MIN TEMP: 75; 6HR MAX TEMP: 78; STATESBORO MOSUNNY 76 32 19 CALM 29.97R SYLVANIA NOT AVBL CLAXTON NOT AVBL ...CSRA...CENTRAL AND FAR SOUTHEAST GEORGIA... CITY SKY/WX TMP DP RH WIND PRES REMARKS THOMSON PTSUNNY 75 75 100 CALM 30.03R AUGUSTA-BUSH MOSUNNY 72 72 100 CALM 29.96R FOG 6HR MIN TEMP: 69; 6HR MAX TEMP: 73; AUGUSTA-DANIEL MOSUNNY 77 74 90 CALM 29.98R SWAINSBORO FAIR 73 72 94 CALM 29.98R FOG VIDALIA SUNNY 75 73 94 CALM 29.98R EASTMAN FAIR 74 74 100 CALM 30.00R FOG HAZLEHURST FAIR 76 76 100 CALM 29.97S ALMA MOSUNNY 77 74 90 NW3 29.98R 6HR MIN TEMP: 75; 6HR MAX TEMP: 77; WAYCROSS MOSUNNY 78 78 99 W3 29.98R JESUP FAIR 77 77 100 CALM 29.98R FOG BAXLEY FAIR 77 75 94 CALM 29.98R BRUNSWICK SUNNY 72 72 100 CALM 29.98R SAINT SIMONS SUNNY 76 74 93 NW5 29.96R 6HR MIN TEMP: 75; 6HR MAX TEMP: 77; $$ SCZ027-028-034-036>038-045-046-048>050-GAZ119-141-041300- ...LAKE AND SUPPLEMENTAL COASTAL OBSERVATIONS... STATION/POSITION TIME TEMP WIND PRES WAVE SWELL AIR SEA DIR/SP/G HT/PER HT/PER/DIR (UTC) (F) (DEG/KT/KT) (MB) (FT/S) (FT/S/D) UPR LAKE MARION NOT AVBL WINYAH BAY 1045 76 290/ 3 1012.0 LAKE MURRAY 1100 75 CALM / 3 1013.9R ACE BASIN NERRS NOT AVBL FORT PULASKI 1100 79 83 280/ 8/ 9 1014.2R SAPELO ISLAND 1100 77 320/ 4 1014.0R $$ ANZ835-935-AMZ111-154-330-350-352-354-370-450-454-472-041300- ...C-MAN AND BUOY OBSERVATIONS... STATION/POSITION TIME TEMP WIND PRES WAVE SWELL AIR SEA DIR/SP/G HT/PER HT/PER/DIR (UTC) (F) (DEG/KT/KT) (MB) (FT/S) (FT/S/D) BUOY 41004 1150 82 83 330/ 10/ 12 1013.4R 1/12 2/12 BUOY 41008 1150 81 84 320/ 10/ 12 1014.5R 1/ 8 2/120/ 8 FOLLY BEACH CMAN 1100 78 310/ 2/ 3 1013.5R CAPERS NEARSHORE 1108 81 300/ 8/ 10 1013.6R FRIPP NEARSHORE 1100 81 300/ 8/ 10 1013.4R STATION/POSITION TIME TEMP WIND PRES WAVE SWELL AIR SEA DIR/SP/G HT/PER HT/PER/DIR (UTC) (F) (DEG/KT/KT) (MB) (FT/S) (FT/S/D) 5E ST. MARYS GA 1121 85 N/A 1/ 9 FRYING PAN BUOY 1150 81 81 10/ 8/ 10 1014.3R 1/ 7 2/160/ 7 BUOY 41025 1150 81 85 340/ 8/ 10 1013.7R 1/13 2/ 70/13 CAPE LOOKOUT NC 1100 78 340/ 4/ 5 1013.1R BUOY 41002 1150 82 84 300/ 8/ 8 1013.4R 2/ 5 2/280/ 5 BUOY 41010 1120 82 85 250/ 16/ 17 1013.4R ST AUGUSTINE FL 1200 79 83 290/ 5/ 5 1015.4R $$

USA.gov is the U.S. government's official web portal to all federal, state and local government web resources and services.